TOURFACTS.DK  
Stats and Facts from Tour de France.

Tour de France 2017 starts in 2 days
  Riders   Stages   Teams   Summits   Yearly  


 
Search by year

 After:  2016 - Stage 21:
  14626 starters.
  5126 different riders.
  634 teams.
  2211 stages.
  454 restdays.
  436049.60 km.
  5622 abandonnees.


Top 3
Christopher Froome89:04:48
Romain Bardet89:08:53
Nairo Quintana89:09:09
Rafal Majka209 pt.
Thomas De Gendt130 pt.
Jarlinson Pantano ..121 pt.
Peter Sagan470 pt.
Marcel Kittel228 pt.
Michael Matthews199 pt.
Adam Yates89:09:30
Louis Meintjes89:11:46
Emanuel Buchmann89:52:28
Facts from Tour de France 2015
  |   Stages.  |   Stage winners.  |   Days in yellow  |   Average speed.  |   Route.  |   Teams.  |   All riders.  |   Rookies.  |   Withdrawls.  |  

  |   GC.  |   Polka  |   Green  |   White  |   Summits. (In tour)  |   Summits. (Points)  |   Miscellaneous.  |  

Stage 12 on 16 - 07 - 2015
         Owning:    Christopher Froome      Christopher Froome      Peter Sagan      Nairo Quintana  

Pick a stage:  1 2 3 4 5 6 7 8 10 11 12 13 14 15 16 17 18 19 20 21
  LannemezanPlateau de Beille | Dist: 195.00 km.
Cat: 2Col de Portet-d'AspetAUTGeorg Preidler5 points 
Cat: 1Col de la CoreHRVKristijan Durasek10 points 
Cat: 1Port de LersPOLMichal Kwiatkowski10 points 
Cat: HPlateau de BeilleESPJoaquim Rodriguez50 points 

Average speed for all riders in stage:  31,922 km./hr.
    Place:Name:Team:Time:Km/h:
ESPJoaquim RodriguezRUSTeam Katusha05:40:14  +  00:00:00=34,388 
CHEJakob FuglsangKAZAstana Pro Team05:41:26  +  00:01:12=34,267 
FRARomain BardetFRAAg2r La Mondiale05:42:03  +  00:01:49=34,206 
4 ESPGorka Izaguirre InsaustiESPMovistar Team05:44:48  +  00:04:34=33,933 
5 ZAFLouis MeintjesZAFMTN - Qhubeka P/B Samsung05:44:52  +  00:04:38=33,926 
6 CZEJan BártaDEUBora-Argon 1805:46:01  +  00:05:47=33,813 
7 FRARomain SicardFRATeam Europcar05:46:17  +  00:06:03=33,787 
8 FRAMickaël CherelFRAAg2r La Mondiale05:46:42  +  00:06:28=33,747 
9 ESPAlejandro ValverdeESPMovistar Team05:47:00  +  00:06:46=33,718 
10 KENChristopher FroomeGBRSky Procycling05:47:01  +  00:06:47=33,716 
11 COLNairo QuintanaESPMovistar Team05:47:01  +  00:06:47=33,716 
12 FRAThibaut PinotFRAFDJ05:47:01  +  00:06:47=33,716 
13 USATejay Van GarderenUSABMC Racing Team05:47:01  +  00:06:47=33,716 
14 ESPAlberto ContadorRUSTinkoff Saxo05:47:01  +  00:06:47=33,716 
15 FRAPierre RollandFRATeam Europcar05:47:01  +  00:06:47=33,716 
16 ITAVincenzo NibaliKAZAstana Pro Team05:47:01  +  00:06:47=33,716 
17 WALGeraint ThomasGBRSky Procycling05:47:01  +  00:06:47=33,716 
18 NLDRobert GesinkNLDTeam Lotto NL - Jumbo05:47:58  +  00:07:44=33,624 
19 NLDBauke MollemaUSATrek Factory Racing05:47:58  +  00:07:44=33,624 
20 ESPSamuel SanchezUSABMC Racing Team05:49:27  +  00:09:13=33,481 
21 USAAndrew TalanskyUSATeam Cannondale - Garmin05:50:00  +  00:09:46=33,429 
22 FRATony GallopinBELLotto Soudal05:50:00  +  00:09:46=33,429 
23 FRAWarren BarguilDEUTeam Giant Alpecin05:50:00  +  00:09:46=33,429 
24 CHEMathias FrankCHEIAM Cycling05:50:00  +  00:09:46=33,429 
25 ARGEduardo SepulvedaFRABretagne - Séché Environnement05:50:00  +  00:09:46=33,429 
26 NLDLaurens ten DamNLDTeam Lotto NL - Jumbo05:50:00  +  00:09:46=33,429 
27 POLMichal KwiatkowskiBELEtixx - Quick Step05:51:49  +  00:11:35=33,256 
28 FRAAlexis VuillermozFRAAg2r La Mondiale05:52:01  +  00:11:47=33,237 
29 AUSRichie PorteGBRSky Procycling05:52:52  +  00:12:38=33,157 
30 BELSep VanmarckeNLDTeam Lotto NL - Jumbo05:52:52  +  00:12:38=33,157 
31 CANRyder HesjedalUSATeam Cannondale - Garmin05:53:01  +  00:12:47=33,143 
32 BELSerge PauwelsZAFMTN - Qhubeka P/B Samsung05:53:49  +  00:13:35=33,068 
33 ESPJonathan CastroviejoESPMovistar Team05:56:13  +  00:15:59=32,845 
34 COLJarlinson Pantano GomezCHEIAM Cycling05:56:13  +  00:15:59=32,845 
35 ERIDaniel TeklehaimanotZAFMTN - Qhubeka P/B Samsung05:57:16  +  00:17:02=32,749 
36 CHESteve MorabitoFRAFDJ05:57:16  +  00:17:02=32,749 
37 PRTTiago PintoRUSTeam Katusha05:57:16  +  00:17:02=32,749 
38 CZERoman KreuzigerRUSTinkoff Saxo05:57:16  +  00:17:02=32,749 
39 AUSMichael RogersRUSTinkoff Saxo05:57:16  +  00:17:02=32,749 
40 FRANicolas RocheGBRSky Procycling05:57:16  +  00:17:02=32,749 
41 POLRafal MajkaRUSTinkoff Saxo05:57:16  +  00:17:02=32,749 
42 ESPAlberto LosadaRUSTeam Katusha05:57:16  +  00:17:02=32,749 
43 DNKLars BakBELLotto Soudal05:57:16  +  00:17:02=32,749 
44 DEUSimon GeschkeDEUTeam Giant Alpecin05:58:30  +  00:18:16=32,636 
45 FRAThomas VoecklerFRATeam Europcar05:58:33  +  00:18:19=32,631 
46 FRAJérôme CoppelCHEIAM Cycling05:59:52  +  00:19:38=32,512 
47 NLDSteven KruijswijkNLDTeam Lotto NL - Jumbo05:59:52  +  00:19:38=32,512 
48 ESPLuis Angel MateFRACofidis – Solutions Crédits05:59:52  +  00:19:38=32,512 
49 DEUEmanuel BuchmannDEUBora-Argon 1805:59:52  +  00:19:38=32,512 
50 FRAAnthony DelaplaceFRABretagne - Séché Environnement05:59:52  +  00:19:38=32,512 
51 FRASylvain ChavanelCHEIAM Cycling05:59:52  +  00:19:38=32,512 
52 USRTanel KangertKAZAstana Pro Team06:00:21  +  00:20:07=32,468 
53 ESPHaimar ZubeldiaUSATrek Factory Racing06:01:01  +  00:20:47=32,408 
54 NLDWilco KeldermanNLDTeam Lotto NL - Jumbo06:01:01  +  00:20:47=32,408 
55 LUXBob JungelsUSATrek Factory Racing06:01:01  +  00:20:47=32,408 
56 CHEMichael SchärUSABMC Racing Team06:01:01  +  00:20:47=32,408 
57 CHEDanilo WyssUSABMC Racing Team06:01:01  +  00:20:47=32,408 
58 BELJan BakelantsFRAAg2r La Mondiale06:01:01  +  00:20:47=32,408 
59 FRAFrédéric BrunFRABretagne - Séché Environnement06:01:01  +  00:20:47=32,408 
60 HRVKristijan DurasekITALampre-Merida06:01:01  +  00:20:47=32,408 
61 NLDBram TankinkNLDTeam Lotto NL - Jumbo06:01:01  +  00:20:47=32,408 
62 IMNPeter KennaughGBRSky Procycling06:01:01  +  00:20:47=32,408 
63 ESPDaniel NavarroFRACofidis – Solutions Crédits06:02:00  +  00:21:46=32,320 
64 COLWinner AnaconaESPMovistar Team06:03:20  +  00:23:06=32,202 
65 ENGDaniel MartinUSATeam Cannondale - Garmin06:03:23  +  00:23:09=32,197 
66 FRAJean-Christophe PeraudFRAAg2r La Mondiale06:03:30  +  00:23:16=32,187 
67 ENGStephen CummingsZAFMTN - Qhubeka P/B Samsung06:03:49  +  00:23:35=32,159 
68 CZELeopold KönigGBRSky Procycling06:04:42  +  00:24:28=32,081 
69 BELThomas De GendtBELLotto Soudal06:06:01  +  00:25:47=31,966 
70 NLDLieuwe WestraKAZAstana Pro Team06:06:01  +  00:25:47=31,966 
71 NLDWout PoelsGBRSky Procycling06:06:03  +  00:25:49=31,963 
72 FRAJérémy RoyFRAFDJ06:06:03  +  00:25:49=31,963 
73 AUTGeorg PreidlerDEUTeam Giant Alpecin06:06:39  +  00:26:25=31,911 
74 FRAMatthieu LadagnousFRAFDJ06:06:39  +  00:26:25=31,911 
75 ESPJosé Herrada LópezESPMovistar Team06:07:46  +  00:27:32=31,814 
76 ESPRubén PlazaITALampre-Merida06:07:46  +  00:27:32=31,814 
77 AUSRohan DennisUSABMC Racing Team06:07:46  +  00:27:32=31,814 
78 ITADamiano CarusoUSABMC Racing Team06:07:46  +  00:27:32=31,814 
79 CHEMarcel WyssCHEIAM Cycling06:10:38  +  00:30:24=31,568 
80 CHEMartin ElmigerCHEIAM Cycling06:10:38  +  00:30:24=31,568 
81 CHEReto HollensteinCHEIAM Cycling06:10:38  +  00:30:24=31,568 
82 FRANicolas EdetFRACofidis – Solutions Crédits06:10:38  +  00:30:24=31,568 
83 DEUJohn DegenkolbDEUTeam Giant Alpecin06:13:41  +  00:33:27=31,310 
84 NLDKoen De KortDEUTeam Giant Alpecin06:13:41  +  00:33:27=31,310 
85 FRABrice FeilluFRABretagne - Séché Environnement06:13:48  +  00:33:34=31,300 
86 NLDStef ClementCHEIAM Cycling06:13:48  +  00:33:34=31,300 
87 ITAGiampaolo CarusoRUSTeam Katusha06:13:48  +  00:33:34=31,300 
88 ITAMatteo TosattoRUSTinkoff Saxo06:13:48  +  00:33:34=31,300 
89 BELJens DebusschereBELLotto Soudal06:13:48  +  00:33:34=31,300 
90 AUSAdam HansenBELLotto Soudal06:13:48  +  00:33:34=31,300 
91 ESPMarkel IrizarUSATrek Factory Racing06:13:48  +  00:33:34=31,300 
92 FRAArmindo FonsecaFRABretagne - Séché Environnement06:13:48  +  00:33:34=31,300 
93 BELStijn DevolderUSATrek Factory Racing06:13:48  +  00:33:34=31,300 
94 FRAJulien SimonFRACofidis – Solutions Crédits06:13:48  +  00:33:34=31,300 
95 NLDRoy CurversDEUTeam Giant Alpecin06:13:48  +  00:33:34=31,300 
96 PRTNelson OliveiraITALampre-Merida06:13:48  +  00:33:34=31,300 
97 FRABenoit VaugrenardFRAFDJ06:13:48  +  00:33:34=31,300 
98 FRAFlorian SénéchalFRACofidis – Solutions Crédits06:13:48  +  00:33:34=31,300 
99 FRAPerrig QuemeneurFRATeam Europcar06:13:48  +  00:33:34=31,300 
100 DEUPaul MartensNLDTeam Lotto NL - Jumbo06:13:48  +  00:33:34=31,300 
101 FRAPierrick FédrigoFRABretagne - Séché Environnement06:13:48  +  00:33:34=31,300 
102 ERIMerhawi GhebremedhinZAFMTN - Qhubeka P/B Samsung06:13:48  +  00:33:34=31,300 
103 CHEGregory RastUSATrek Factory Racing06:13:48  +  00:33:34=31,300 
104 FRAFlorian VachonFRABretagne - Séché Environnement06:13:48  +  00:33:34=31,300 
105 FRAArnaud GérardFRABretagne - Séché Environnement06:13:48  +  00:33:34=31,300 
106 FRAAlexandre GeniezFRAFDJ06:13:48  +  00:33:34=31,300 
107 UKRAndriy GrivkoKAZAstana Pro Team06:13:48  +  00:33:34=31,300 
108 ESPImanol ErvitiESPMovistar Team06:13:48  +  00:33:34=31,300 
109 ITAAdriano MaloriESPMovistar Team06:13:48  +  00:33:34=31,300 
110 ENGAdam YatesAUSOrica - GreenEDGE06:13:48  +  00:33:34=31,300 
111 POLMichal GolasBELEtixx - Quick Step06:13:48  +  00:33:34=31,300 
112 ITAManuel QuinziatoUSABMC Racing Team06:13:48  +  00:33:34=31,300 
113 NLDJos Van EmdenNLDTeam Lotto NL - Jumbo06:13:48  +  00:33:34=31,300 
114 SVNKristjan KorenUSATeam Cannondale - Garmin06:13:48  +  00:33:34=31,300 
115 BELJulien VermoteBELEtixx - Quick Step06:13:48  +  00:33:34=31,300 
116 FRAPierre-Luc PérichonFRABretagne - Séché Environnement06:13:48  +  00:33:34=31,300 
117 CZEZdenek StybarBELEtixx - Quick Step06:13:48  +  00:33:34=31,300 
118 BELGreg Van AvermaetUSABMC Racing Team06:13:48  +  00:33:34=31,300 
119 ESPRafael Valls FerriITALampre-Merida06:13:48  +  00:33:34=31,300 
120 PRTJosé João PimentaDEUBora-Argon 1806:13:48  +  00:33:34=31,300 
121 ITAMatteo BonoITALampre-Merida06:13:48  +  00:33:34=31,300 
122 SVKPeter SaganRUSTinkoff Saxo06:13:48  +  00:33:34=31,300 
123 ITAMichele ScarponiKAZAstana Pro Team06:13:48  +  00:33:34=31,300 
124 FRACyril GautierFRATeam Europcar06:13:48  +  00:33:34=31,300 
125 DEUAndré GreipelBELLotto Soudal06:13:48  +  00:33:34=31,300 
126 FRAYohann GèneFRATeam Europcar06:13:48  +  00:33:34=31,300 
127 POLBartosz HuzarskiDEUBora-Argon 1806:13:48  +  00:33:34=31,300 
128 DEUPaul VossDEUBora-Argon 1806:13:48  +  00:33:34=31,300 
129 ITADaniel OssUSABMC Racing Team06:13:48  +  00:33:34=31,300 
130 KAZDmitriy GruzdevKAZAstana Pro Team06:13:48  +  00:33:34=31,300 
131 NLDPieter WeeningAUSOrica - GreenEDGE06:13:48  +  00:33:34=31,300 
132 NLDAlbert TimmerDEUTeam Giant Alpecin06:13:48  +  00:33:34=31,300 
133 LUXLaurent DidierUSATrek Factory Racing06:13:48  +  00:33:34=31,300 
134 BELTim WellensBELLotto Soudal06:13:48  +  00:33:34=31,300 
135 FRAAngelo TulikFRATeam Europcar06:15:01  +  00:34:47=31,199 
136 FRABryan CoquardFRATeam Europcar06:15:01  +  00:34:47=31,199 
137 NLDDylan Van BaarleUSATeam Cannondale - Garmin06:17:08  +  00:36:54=31,024 
138 NLDRamon SinkeldamDEUTeam Giant Alpecin06:17:08  +  00:36:54=31,024 
139 FRAGeoffrey SoupeFRACofidis – Solutions Crédits06:17:08  +  00:36:54=31,024 
140 AUTMatthias BrändleCHEIAM Cycling06:17:08  +  00:36:54=31,024 
141 DEUMarcel SiebergBELLotto Soudal06:17:08  +  00:36:54=31,024 
142 COLJulián ArredondoUSATrek Factory Racing06:17:08  +  00:36:54=31,024 
143 ZAFReinardt Janse Van RensburgZAFMTN - Qhubeka P/B Samsung06:17:08  +  00:36:54=31,024 
144 USATyler FarrarZAFMTN - Qhubeka P/B Samsung06:17:08  +  00:36:54=31,024 
145 AUSNathan HaasUSATeam Cannondale - Garmin06:17:08  +  00:36:54=31,024 
146 ITAFilippo PozzatoITALampre-Merida06:17:08  +  00:36:54=31,024 
147 DNKMichael ValgrenRUSTinkoff Saxo06:17:08  +  00:36:54=31,024 
148 BELSam BennettDEUBora-Argon 1806:17:08  +  00:36:54=31,024 
149 ITAJacopo GuarnieriRUSTeam Katusha06:17:08  +  00:36:54=31,024 
150 FRAChristophe LaporteFRACofidis – Solutions Crédits06:17:08  +  00:36:54=31,024 
151 FRAChristophe RiblonFRAAg2r La Mondiale06:17:08  +  00:36:54=31,024 
152 ZAFJacques Janse Van RensburgZAFMTN - Qhubeka P/B Samsung06:17:08  +  00:36:54=31,024 
153 COLJosé SerpaITALampre-Merida06:17:08  +  00:36:54=31,024 
154 FRABryan NauleauFRATeam Europcar06:17:08  +  00:36:54=31,024 
155 FRASébastien ChavanelFRAFDJ06:17:08  +  00:36:54=31,024 
156 NORAlexander KristoffRUSTeam Katusha06:17:08  +  00:36:54=31,024 
157 NOREdvald Boasson HagenZAFMTN - Qhubeka P/B Samsung06:17:08  +  00:36:54=31,024 
158 AUSMark RenshawBELEtixx - Quick Step06:17:08  +  00:36:54=31,024 
159 FRADamien GaudinFRAAg2r La Mondiale06:17:08  +  00:36:54=31,024 
160 ENGSimon YatesAUSOrica - GreenEDGE06:17:08  +  00:36:54=31,024 
161 AUSLuke DurbridgeAUSOrica - GreenEDGE06:17:08  +  00:36:54=31,024 
162 COLRigoberto UranBELEtixx - Quick Step06:17:08  +  00:36:54=31,024 
163 AUSMichael MatthewsAUSOrica - GreenEDGE06:17:08  +  00:36:54=31,024 
164 FRAArnaud DémareFRAFDJ06:17:08  +  00:36:54=31,024 
165 ITAMatteo TrentinBELEtixx - Quick Step06:17:08  +  00:36:54=31,024 
166 ENGIan StannardGBRSky Procycling06:17:08  +  00:36:54=31,024 
167 IMNMark CavendishBELEtixx - Quick Step06:17:08  +  00:36:54=31,024 
168 AUTMarco HallerRUSTeam Katusha06:17:08  +  00:36:54=31,024 
169 NLDTom LeezerNLDTeam Lotto NL - Jumbo06:17:08  +  00:36:54=31,024 
170 NLDSebastian LangeveldUSATeam Cannondale - Garmin06:17:08  +  00:36:54=31,024 
171 WALLuke RoweGBRSky Procycling06:17:08  +  00:36:54=31,024 
172 BELKenneth VanbilsenFRACofidis – Solutions Crédits06:17:08  +  00:36:54=31,024 
173 USRRamunas NavardauskasUSATeam Cannondale - Garmin06:17:08  +  00:36:54=31,024 
174 CANSvein TuftAUSOrica - GreenEDGE06:17:08  +  00:36:54=31,024 
175 ITADavide CimolaiITALampre-Merida06:17:47  +  00:37:33=30,970 

Withdrawls: 2
 
Rider
Team
Reason
54  ENGAlex DowsettESPMovistar TeamDid not finish
194  AUSZakkari DempsterDEUBora-Argon 18Did not finish

Todays birthdays.

1888  René Etien
1891  Arturo Ferrario
1913  Léon Theerlynck
1921  Roger Piel
1929  Antonio Ferraz
1930  Rizzardo Brenioli
1934  Orphée Meneghini
1943  Pietro Guerra
1961  Marc Somers
1964  Ettore Badolato
1967  Miguel Angel Martinez
1968  Davide Bramati
1981  Vasil Kiryienka